Terminal Aerodrome Forecast
Issued by NWS Midland/Odessa, TX

Home | Current Version | Previous Version | Text Only | Print | Product List | Glossary On
Versions: 1 2 3 4 5 6 7 8 9 10 11 12 13 14 15 16 17 18 19 20 21 22 23 24 25 26 27 28 29 30 31 32 33 34 35 36
000
FTUS44 KMAF 240100 AAC
TAFMAF
TAF AMD
KMAF 240140Z 2402/2424 18011KT P6SM SCT100 BKN150
      TEMPO 2406/2410 5SM BR BKN015
     FM241000 22010KT P6SM SKC=

USA.gov is the U.S. government's official web portal to all federal, state and local government web resources and services.